Weather History for K5H4 - January, 2012

Change the Weather History Date:

Saturday, January 14, 2012

  Actual Average (KRUG) Record (KRUG)
Temperature  
Mean Temperature 26 °F -  
Max Temperature 30 °F 16 °F 36 °F (1973)
Min Temperature 21 °F -2 °F -32 °F (1972)
Degree Days  
Heating Degree Days 40    
Moisture  
Dew Point 21 °F    
Average Humidity 82    
Maximum Humidity 100    
Minimum Humidity 69    
Precipitation  
Precipitation 0.00 in - - ()
Sea Level Pressure  
Sea Level Pressure 29.88 in    
Wind  
Wind Speed 11 mph (WNW)    
Max Wind Speed 17 mph    
Max Gust Speed 23 mph    
Visibility 10 miles    
Events      
Averages and records for this station are not official NWS values.
T = Trace of Precipitation, MM = Missing Value Source: NWS Daily Summary

Daily Weather History Graph

Daily Weather History Graph

Search for Another Location

Airport or City:

Trip Planner

Search our weather history database for the weather conditions in past years. The results will help you decide how hot, cold, wet, or windy it might be!

Date:

Astronomy

Jan. 14, 2012 Rise Set
Actual Time 8:24 AM CST 5:12 PM CST
Civil Twilight 7:49 AM CST 5:47 PM CST
Nautical Twilight 7:11 AM CST 6:26 PM CST
Astronomical Twilight 6:34 AM CST 7:03 PM CST
Moon No Moon Rise 10:40 AM CST (1/14)
Length of Visible Light 9h 58m
Length of Day
8h 48m
Waning Gibbous, 68% of the Moon is Illuminated
Jan 14
Waning Gibbous
Jan 16
Last Quarter
Jan 23
New
Jan 30
First Quarter
Feb 7
Full

Hourly Weather History & Observations

Time (CST) Temp. Windchill Dew Point Humidity Pressure Visibility Wind Dir Wind Speed Gust Speed Precip Events Conditions
12:15 AM 28.4 °F 19.1 °F 28.4 °F 100% 29.81 in 10.0 mi WNW 10.4 mph - N/A   Scattered Clouds
12:35 AM 26.6 °F 16.8 °F 26.6 °F 100% 29.81 in 10.0 mi WNW 10.4 mph - N/A   Clear
12:55 AM 26.6 °F 16.2 °F 26.6 °F 100% 29.81 in 10.0 mi WNW 11.5 mph - N/A   Scattered Clouds
1:15 AM 26.6 °F 15.7 °F 24.8 °F 93% 29.81 in 10.0 mi WNW 12.7 mph - N/A   Partly Cloudy
1:35 AM 26.6 °F 14.7 °F 24.8 °F 93% 29.82 in 10.0 mi WNW 15.0 mph 20.7 mph N/A   Partly Cloudy
1:55 AM 24.8 °F 11.9 °F 23.0 °F 93% 29.82 in 10.0 mi WNW 16.1 mph 23.0 mph N/A   Clear
2:15 AM 24.8 °F 13.4 °F 23.0 °F 93% 29.83 in 10.0 mi WNW 12.7 mph - N/A   Partly Cloudy
2:35 AM 24.8 °F 13.4 °F 21.2 °F 86% 29.83 in 10.0 mi West 12.7 mph 18.4 mph N/A   Mostly Cloudy
2:55 AM 24.8 °F 14.0 °F 23.0 °F 93% 29.84 in 10.0 mi WNW 11.5 mph - N/A   Overcast
3:15 AM 24.8 °F 13.4 °F 23.0 °F 93% 29.84 in 10.0 mi WNW 12.7 mph - N/A   Mostly Cloudy
3:35 AM 26.6 °F 15.2 °F 23.0 °F 86% 29.84 in 10.0 mi WNW 13.8 mph - N/A   Mostly Cloudy
3:55 AM 24.8 °F 14.0 °F 21.2 °F 86% 29.85 in 10.0 mi WNW 11.5 mph - N/A   Scattered Clouds
4:15 AM 26.6 °F 14.3 °F 23.0 °F 86% 29.85 in 10.0 mi WNW 16.1 mph 23.0 mph N/A   Mostly Cloudy
4:35 AM 26.6 °F 14.3 °F 23.0 °F 86% 29.86 in 10.0 mi WNW 16.1 mph - N/A   Overcast
4:55 AM 26.6 °F 13.8 °F 23.0 °F 86% 29.86 in 10.0 mi WNW 17.3 mph 21.9 mph N/A   Overcast
5:15 AM 24.8 °F 14.0 °F 23.0 °F 93% 29.86 in 10.0 mi WNW 11.5 mph - N/A   Mostly Cloudy
5:35 AM 26.6 °F 16.2 °F 23.0 °F 86% 29.86 in 10.0 mi WNW 11.5 mph - N/A   Mostly Cloudy
5:55 AM 26.6 °F 16.8 °F 24.8 °F 93% 29.86 in 10.0 mi West 10.4 mph - N/A   Overcast
6:15 AM 26.6 °F 16.2 °F 23.0 °F 86% 29.88 in 10.0 mi West 11.5 mph - N/A   Scattered Clouds
6:35 AM 24.8 °F 14.6 °F 23.0 °F 93% 29.88 in 10.0 mi West 10.4 mph - N/A   Mostly Cloudy
6:55 AM 26.6 °F 16.2 °F 23.0 °F 86% 29.88 in 10.0 mi West 11.5 mph - N/A   Overcast
7:15 AM 26.6 °F 16.8 °F 23.0 °F 86% 29.88 in 10.0 mi West 10.4 mph - N/A   Overcast
7:35 AM 28.4 °F 17.5 °F 23.0 °F 80% 29.88 in 10.0 mi West 13.8 mph 21.9 mph N/A   Overcast
7:55 AM 26.6 °F 15.2 °F 23.0 °F 86% 29.88 in 10.0 mi West 13.8 mph - N/A   Overcast
8:15 AM 24.8 °F 13.4 °F 19.4 °F 80% 29.89 in 10.0 mi WNW 12.7 mph - N/A   Overcast
8:35 AM 24.8 °F 13.4 °F 19.4 °F 80% 29.90 in 10.0 mi West 12.7 mph - N/A   Overcast
8:55 AM 24.8 °F 12.4 °F 19.4 °F 80% 29.90 in 10.0 mi West 15.0 mph 19.6 mph N/A   Overcast
9:15 AM 24.8 °F 13.4 °F 17.6 °F 74% 29.91 in 10.0 mi West 12.7 mph - N/A   Overcast
9:35 AM 23.0 °F 11.1 °F 17.6 °F 80% 29.91 in 10.0 mi West 12.7 mph - N/A   Overcast
9:55 AM 24.8 °F 14.6 °F 17.6 °F 74% 29.91 in 10.0 mi WSW 10.4 mph - N/A   Overcast
10:15 AM 23.0 °F 11.7 °F 17.6 °F 80% 29.92 in 10.0 mi West 11.5 mph - N/A   Overcast
10:35 AM 24.8 °F 13.4 °F 17.6 °F 74% 29.92 in 10.0 mi West 12.7 mph 18.4 mph N/A   Overcast
10:55 AM 24.8 °F 12.4 °F 17.6 °F 74% 29.92 in 10.0 mi WNW 15.0 mph 20.7 mph N/A   Overcast
11:35 AM 24.8 °F 12.4 °F 17.6 °F 74% 29.93 in 10.0 mi WNW 15.0 mph 20.7 mph N/A   Overcast
11:55 AM 24.8 °F 12.9 °F 17.6 °F 74% 29.92 in 10.0 mi WNW 13.8 mph - N/A   Overcast
12:15 PM 26.6 °F 14.7 °F 19.4 °F 74% 29.92 in 10.0 mi WNW 15.0 mph - N/A   Mostly Cloudy
12:35 PM 26.6 °F 15.2 °F 19.4 °F 74% 29.92 in 10.0 mi WNW 13.8 mph - N/A   Overcast
12:55 PM 26.6 °F 14.7 °F 19.4 °F 74% 29.92 in 10.0 mi WNW 15.0 mph - N/A   Overcast
1:15 PM 26.6 °F 15.2 °F 19.4 °F 74% 29.91 in 10.0 mi WNW 13.8 mph - N/A   Overcast
1:35 PM 28.4 °F 18.5 °F 19.4 °F 69% 29.91 in 10.0 mi WNW 11.5 mph - N/A   Overcast
1:55 PM 28.4 °F 19.7 °F 21.2 °F 74% 29.91 in 10.0 mi WNW 9.2 mph - N/A   Overcast
2:15 PM 30.2 °F 21.9 °F 21.2 °F 69% 29.91 in 10.0 mi WNW 9.2 mph - N/A   Overcast
2:35 PM 28.4 °F 20.4 °F 21.2 °F 74% 29.91 in 10.0 mi WNW 8.1 mph - N/A   Scattered Clouds
2:55 PM 28.4 °F 22.2 °F 21.2 °F 74% 29.91 in 10.0 mi West 5.8 mph - N/A   Partly Cloudy
3:15 PM 30.2 °F 22.6 °F 21.2 °F 69% 29.91 in 10.0 mi West 8.1 mph - N/A   Clear
3:35 PM 28.4 °F 22.2 °F 19.4 °F 69% 29.91 in 10.0 mi West 5.8 mph - N/A   Clear
3:55 PM 28.4 °F 23.3 °F 19.4 °F 69% 29.90 in 10.0 mi West 4.6 mph - N/A   Clear
4:15 PM 28.4 °F 21.2 °F 19.4 °F 69% 29.90 in 10.0 mi West 6.9 mph - N/A   Clear
4:35 PM 28.4 °F - 19.4 °F 69% 29.90 in 10.0 mi Calm Calm - N/A   Clear
4:55 PM 26.6 °F - 19.4 °F 74% 29.90 in 10.0 mi Calm Calm - N/A   Clear
5:15 PM 24.8 °F - 19.4 °F 80% 29.90 in 10.0 mi Calm Calm - N/A   Clear
5:35 PM 21.2 °F 16.4 °F 17.6 °F 86% 29.89 in 10.0 mi ESE 3.5 mph - N/A   Clear
5:55 PM 24.8 °F - 19.4 °F 80% 29.89 in 10.0 mi Calm Calm - N/A   Clear
6:15 PM 23.0 °F 18.4 °F 19.4 °F 86% 29.89 in 10.0 mi South 3.5 mph - N/A   Clear
6:35 PM 21.2 °F 14.9 °F 17.6 °F 86% 29.90 in 10.0 mi SSW 4.6 mph - N/A   Clear
6:55 PM 19.4 °F 14.3 °F 17.6 °F 93% 29.89 in 10.0 mi SSE 3.5 mph - N/A   Clear
7:15 PM 19.4 °F 14.3 °F 17.6 °F 93% 29.89 in 10.0 mi SSW 3.5 mph - N/A   Clear
7:35 PM 17.6 °F 12.3 °F 15.8 °F 93% 29.89 in 10.0 mi SSE 3.5 mph - N/A   Clear
7:55 PM 19.4 °F 14.3 °F 17.6 °F 93% 29.89 in 10.0 mi South 3.5 mph - N/A   Clear
8:15 PM 15.8 °F 10.2 °F 14.0 °F 93% 29.88 in 10.0 mi South 3.5 mph - N/A   Partly Cloudy
8:35 PM 15.8 °F 10.2 °F 14.0 °F 93% 29.88 in 10.0 mi SE 3.5 mph - N/A   Clear
8:55 PM 15.8 °F 6.1 °F 14.0 °F 93% 29.87 in 10.0 mi ESE 6.9 mph - N/A   Clear
9:15 PM 14.0 °F 6.5 °F 14.0 °F 100% 29.87 in 10.0 mi SE 4.6 mph - N/A   Clear
9:55 PM 14.0 °F 2.9 °F 10.4 °F 86% 29.84 in 10.0 mi ESE 8.1 mph - N/A   Partly Cloudy
10:15 PM 14.0 °F 5.1 °F 14.0 °F 100% 29.83 in 10.0 mi SE 5.8 mph - N/A   Scattered Clouds
10:35 PM 15.8 °F 7.2 °F 14.0 °F 93% 29.83 in 10.0 mi ESE 5.8 mph - N/A   Mostly Cloudy
10:55 PM 15.8 °F 5.1 °F 15.8 °F 100% 29.81 in 10.0 mi ESE 8.1 mph - N/A   Mostly Cloudy
11:35 PM 19.4 °F 11.5 °F 17.6 °F 93% 29.80 in 10.0 mi SE 5.8 mph - N/A   Scattered Clouds
11:55 PM 21.2 °F 12.6 °F 17.6 °F 86% 29.81 in 10.0 mi SE 6.9 mph - N/A   Mostly Cloudy